Regional Weather Roundup
Issued by NWS

Home | Current Version | Previous Version | Text Only | Print | Product List | Glossary Off
Versions: 1 2 3 4 5 6 7 8 9 10 11 12 13 14 15 16 17 18 19 20 21 22 23 24 25 26 27 28 29 30 31 32 33 34 35 36 37 38 39 40 41 42 43 44 45 46 47 48 49 50

314
ASUS43 KLOT 061303
RWRIL

ILLINOIS REGIONAL WEATHER ROUNDUP
NATIONAL WEATHER SERVICE CHICAGO/ROMEOVILLE IL
700 AM CST TUE DEC 06 2016

NOTE: "FAIR" INDICATES FEW OR NO CLOUDS BELOW 12,000 FEET WITH NO
SIGNIFICANT WEATHER AND/OR OBSTRUCTIONS TO VISIBILITY.

* THESE STATIONS ARE NOT UNDER NWS QUALITY CONTROL. THEY ALSO MAY NOT
  REPORT WEATHER SUCH AS PRECIPITATION OR FOG.

ILZ001-002-007-009-015-016-024-061400-
NORTHWEST ILLINOIS

CITY           SKY/WX    TMP DP  RH WIND       PRES   REMARKS
MOLINE         FOG       34  32  92 CALM      29.80F VSB 3/4
STERLING*      FOG       32  32 100 CALM      29.82F VSB 1/4
$$

ILZ003-004-008-010-011-017-018-061400-
NORTH CENTRAL ILLINOIS

CITY           SKY/WX    TMP DP  RH WIND       PRES   REMARKS
ROCKFORD       FOG       33  32  96 CALM      29.83S VSB 3/4
$$

ILZ005-006-012>014-019>023-061400-
NORTHEAST ILLINOIS

CITY           SKY/WX    TMP DP  RH WIND       PRES   REMARKS
CHICAGO-OHARE  FOG       30  30 100 NW6       29.79F VSB 1/2 WCI  24
CHICAGO-MIDWAY MOCLDY    32  29  88 N6        29.78F FOG     WCI  26
AURORA         FOG       26  22  84 W5        29.80F VSB 1/4 WCI  20
WAUKEGAN       CLOUDY    34  33  96 CALM      29.79F FOG
DUPAGE AIRPORT FOG       30  29  96 N6        29.78F VSB 1/4 WCI  24
WHEELING       CLOUDY    32  30  92 NW3       29.80F FOG
NORTHERLY ISL    N/A     37  33  85 E8          N/A  WCI  31
$$

LMZ740>746-061400-
SOUTHERN LAKE MICHIGAN

STATION/POSITION SKY/WX   TEMP    WIND        PRES    VSBY  WAVE
                          AIR SEA DIR/SP/G                  HT/PER
                          (F)     (DEG/KT/KT) (MB)    (MI)  (FT/S)
HARRISON CRIB              40     130/ 10/ 12   N/A
BURNHAM HARBOR             37     110/  6/ 10   N/A
CALUMET HARBOR             37      90/  6/  9 1008.4F
BURNS HARBOR               33      80/  6/  9 1009.8
$$

ILZ025>027-034>036-040-047-049-050-058-095>099-061400-
WEST-CENTRAL ILLINOIS

CITY           SKY/WX    TMP DP  RH WIND       PRES   REMARKS
QUINCY         CLOUDY    35  34  96 NW10      29.81R FOG     WCI  27
GALESBURG*     CLOUDY    33  33 100 CALM      29.80F FOG
MACOMB*        CLOUDY    34  34  99 NW6       29.83S FOG     WCI  29
$$

ILZ028>032-037-038-041>044-048-051>054-059>061-061400-
CENTRAL ILLINOIS

CITY           SKY/WX    TMP DP  RH WIND       PRES   REMARKS
BLOOMINGTON    CLOUDY    30  30 100 N10       29.77S FOG     WCI  21
DECATUR        CLOUDY    36  34  92 N6        29.76R WCI  31
PEORIA         FOG       32  32 100 N5        29.80S VSB 1   WCI  27
SPRINGFIELD    CLOUDY    35  33  92 NW6       29.79R FOG     WCI  30
TAYLORVILLE    NOT AVBL
$$

ILZ033-039-045-046-055>057-062-063-061400-
EAST-CENTRAL ILLINOIS

CITY           SKY/WX    TMP DP  RH WIND       PRES   REMARKS
CHAMPAIGN      CLOUDY    37  33  85 NE7       29.72F WCI  32
MATTOON        CLOUDY    37  34  89 CALM      29.72R
$$

ILZ079-100>102-061400-
SOUTHWEST ILLINOIS

CITY           SKY/WX    TMP DP  RH WIND       PRES   REMARKS
ALTON          DRIZZLE   36  34  93 NW12      29.78R FOG     WCI  27
BELLEVILLE     MOCLDY    38  38  99 VRB6      29.76R WCI  34
CAHOKIA*       CLOUDY    39  35  86 NW13      29.79R WCI  31
SPARTA*        CLOUDY    38  36  94 NW8       29.77R FOG     WCI  32
$$

ILZ064>066-069>071-074>076-080>082-084>086-088>090-092>094-061400-
SOUTH-CENTRAL ILLINOIS

CITY           SKY/WX    TMP DP  RH WIND       PRES   REMARKS
CARBONDALE     CLOUDY    39  39 100 NW8       29.73R FOG     WCI  33
MARION         CLOUDY    41  39  93 N9        29.71  FOG
CENTRALIA*     CLOUDY    39  38  97 CALM      29.72R
SALEM*         CLOUDY    40  37  90 N5        29.73R
$$

ILZ067-068-072-073-078-083-087-091-061400-
SOUTHEAST ILLINOIS

CITY           SKY/WX    TMP DP  RH WIND       PRES   REMARKS
LAWRENCEVILLE  LGT RAIN  40  37  89 NE7       29.71F FOG
ROBINSON*      LGT RAIN  38  37  95 N5        29.73F WCI  34
$$

ABBREVIATIONS USED IN REMARKS
   TC - TEMPERATURE IN CELSIUS
  WCI - WIND CHILL INDEX
   HX - HEAT INDEX
  VSB - VISIBILITY
$$





USA.gov is the U.S. government's official web portal to all federal, state and local government web resources and services.